Temperature
8 8 8 8 8 8 7 7 7 7 7 7 7 7 7 6 6 6 6 6 5 5 5 5 5 5 4 4 4 4 3 3 3 3 3 3 3 3 3 3 3 3 3
8 8 8 7 7 7 7 7 7 7 6 6 6 6 6 6 6 6 5 5 5 5 5 4 4 4 4 4 4 3 3 3 2 2 3 3 3 2 2 2 2 2 2
8 7 7 7 7 7 7 7 6 6 6 6 6 6 6 6 5 5 5 5 5 4 4 4 4 4 4 3 3 3 3 2 2 2 2 2 2 2 2 2 2 2 2
7 7 7 7 7 7 6 6 6 6 6 5 5 5 5 5 5 5 5 4 4 4 4 4 4 3 3 3 3 3 2 2 2 1 1 1 2 1 1 1 1 1 1
7 7 7 7 6 6 6 6 5 5 5 5 5 5 5 4 4 4 4 4 4 4 4 3 3 3 3 2 2 2 2 1 1 1 1 1 1 1 1 0 0 0 1
6 6 6 6 6 6 6 5 5 5 5 4 4 4 4 4 4 4 4 4 3 3 3 3 3 3 2 2 2 1 1 1 1 0 0 0 0 0 -0 -0 -1 -1 -0
6 6 6 6 5 5 5 5 5 5 4 4 4 4 4 4 4 4 3 3 3 3 3 2 2 2 2 2 1 1 1 1 0 0 -0 -0 -0 -1 -1 -1 -1 -1 -1
6 6 5 5 5 5 5 4 4 4 4 4 4 4 4 4 3 3 3 3 3 2 2 2 2 2 1 1 1 1 1 0 0 -0 -1 -1 -1 -1 -2 -2 -2 -2 -2
5 5 5 5 5 4 4 4 4 4 4 3 3 3 3 3 3 3 2 2 2 2 2 2 1 1 1 1 0 0 0 0 -0 -1 -1 -1 -1 -2 -2 -2 -3 -3 -3
5 5 4 4 4 4 4 4 3 3 3 3 3 3 3 3 3 2 2 2 2 2 1 1 1 1 0 -0 -0 -0 -0 -0 -1 -1 -1 -1 -2 -2 -3 -3 -3 -4 -4
4 4 4 4 4 3 3 3 3 3 3 3 3 2 2 2 2 2 2 1 1 1 1 1 0 0 -0 -0 -1 -1 -1 -1 -1 -2 -2 -2 -2 -2 -3 -3 -4 -4 -4
4 4 3 3 3 3 3 3 3 2 2 2 2 2 2 2 2 1 1 1 1 0 0 0 -0 -0 -1 -1 -1 -1 -2 -2 -2 -2 -3 -3 -3 -3 -3 -4 -4 -4 -4
3 3 3 3 3 2 2 2 2 2 2 2 2 1 2 1 1 1 1 0 0 -0 -0 -0 -1 -1 -1 -1 -1 -2 -2 -2 -3 -3 -3 -3 -3 -4 -4 -4 -4 -5 -5
3 3 2 2 2 2 2 2 1 1 1 1 1 1 1 1 1 1 0 -0 -0 -1 -1 -1 -1 -1 -2 -2 -2 -2 -2 -3 -3 -3 -4 -4 -4 -4 -4 -5 -5 -5 -5
2 2 2 2 2 1 1 1 1 1 1 0 0 0 0 0 0 -0 -0 -1 -1 -1 -1 -2 -2 -2 -2 -2 -2 -2 -3 -3 -4 -4 -4 -5 -5 -5 -5 -5 -5 -5 -5
2 2 2 1 1 1 1 0 0 0 0 -0 -0 -1 -1 -1 -1 -1 -1 -2 -2 -2 -2 -2 -2 -3 -3 -3 -3 -3 -3 -4 -4 -5 -5 -5 -5 -5 -5 -5 -6 -6 -6
1 1 1 1 0 0 0 -0 -0 -0 -0 -0 -1 -1 -1 -1 -2 -2 -2 -2 -2 -3 -3 -3 -3 -3 -3 -3 -4 -4 -4 -4 -5 -5 -5 -5 -6 -6 -6 -6 -6 -6 -6
1 0 0 0 -0 -0 -1 -1 -1 -1 -1 -1 -1 -1 -2 -2 -2 -2 -3 -3 -3 -3 -3 -3 -3 -3 -4 -4 -4 -4 -5 -5 -5 -5 -5 -6 -6 -6 -6 -6 -6 -6 -6
0 -0 -0 -1 -1 -1 -1 -1 -1 -2 -2 -2 -2 -2 -2 -2 -3 -3 -3 -3 -3 -3 -3 -4 -4 -4 -4 -4 -4 -5 -5 -5 -5 -6 -6 -6 -6 -6 -6 -6 -6 -7 -7
-0 -1 -1 -1 -1 -1 -1 -2 -2 -2 -2 -2 -2 -2 -3 -3 -3 -3 -4 -4 -4 -4 -4 -4 -4 -4 -5 -5 -5 -5 -5 -5 -6 -6 -6 -6 -6 -6 -6 -6 -7 -7 -7
-1 -1 -1 -2 -2 -2 -2 -2 -2 -3 -3 -3 -3 -3 -3 -4 -4 -4 -4 -4 -4 -4 -4 -5 -5 -5 -5 -5 -5 -5 -5 -6 -6 -6 -6 -6 -6 -7 -7 -7 -7 -7 -7
-2 -2 -2 -2 -2 -2 -2 -3 -3 -3 -3 -3 -3 -3 -4 -4 -4 -4 -4 -4 -4 -4 -5 -5 -5 -5 -5 -5 -5 -6 -6 -6 -6 -6 -6 -6 -7 -7 -7 -7 -7 -7 -7
-2 -2 -2 -3 -3 -3 -3 -3 -3 -3 -4 -4 -4 -4 -4 -4 -4 -4 -4 -4 -5 -5 -5 -5 -5 -5 -6 -6 -6 -6 -6 -6 -6 -6 -7 -7 -7 -7 -7 -7 -7 -7 -8
-3 -3 -3 -3 -3 -3 -3 -3 -4 -4 -4 -4 -4 -4 -4 -4 -4 -5 -5 -5 -5 -5 -5 -5 -6 -6 -6 -6 -6 -6 -6 -6 -6 -6 -7 -7 -7 -7 -7 -7 -8 -8 -8
-3 -3 -3 -4 -4 -4 -4 -4 -4 -4 -4 -4 -4 -5 -5 -5 -5 -5 -5 -5 -5 -5 -5 -6 -6 -6 -6 -6 -6 -6 -6 -6 -6 -7 -7 -7 -7 -7 -8 -8 -8 -8 -8
-4 -4 -4 -4 -4 -4 -4 -4 -4 -4 -4 -4 -5 -5 -5 -5 -5 -5 -5 -5 -5 -6 -6 -6 -6 -6 -6 -6 -6 -6 -6 -6 -7 -7 -7 -7 -7 -8 -8 -8 -8 -8 -9
Wind_Speed
5 4 4 4 4 4 3 4 3 3 3 3 4 4 3 3 3 3 3 3 3 3 2 3 4 3 3 3 3 3 3 3 5 4 3 3 3 4 6 7 8 8 8
5 4 4 4 3 4 4 4 3 4 3 4 4 4 4 4 4 4 4 4 4 4 4 4 4 3 4 4 3 4 4 4 5 6 4 3 4 4 4 4 6 6 7
5 5 4 4 4 4 4 4 4 4 3 3 4 4 4 4 4 4 5 5 5 5 5 5 5 4 4 4 4 4 4 4 4 5 5 3 3 3 3 4 4 4 7
5 5 5 5 5 5 4 4 4 4 4 4 4 5 5 4 4 5 5 5 5 5 5 5 5 5 5 5 4 5 4 4 4 4 5 4 4 3 2 3 4 3 4
5 5 6 5 4 4 4 4 4 4 4 4 4 4 4 4 4 5 5 5 5 5 4 5 5 6 7 6 5 4 4 4 4 4 5 4 4 3 3 3 4 4 4
5 6 5 4 4 4 4 4 4 4 4 4 4 5 5 5 6 8 6 5 5 5 5 5 5 5 7 8 9 8 7 5 5 5 5 5 6 5 4 3 3 3 4
5 5 5 5 5 5 4 4 4 5 4 4 5 5 5 6 8 8 8 5 5 5 5 5 4 5 5 4 6 8 8 10 10 6 7 7 6 5 4 4 4 4 5
5 5 5 5 5 5 4 5 5 4 4 5 5 5 5 6 8 8 7 5 4 5 5 5 5 5 5 5 4 4 5 6 8 6 7 7 7 6 5 5 5 4 4
5 6 6 6 6 5 5 6 5 4 5 5 4 5 6 7 8 8 7 3 4 5 5 5 5 6 9 8 5 5 6 6 8 10 10 9 10 10 6 2 2 3 4
6 6 5 5 6 6 6 6 4 4 5 5 5 5 6 6 8 9 7 3 4 5 4 5 8 8 9 9 5 5 7 7 5 5 6 7 6 7 8 5 4 4 4
5 5 5 5 6 6 5 4 4 4 4 4 5 5 5 7 8 9 8 4 5 5 4 4 5 9 10 11 8 6 9 7 4 4 4 4 4 3 3 4 4 5 5
4 4 5 5 5 4 5 4 4 4 4 4 4 5 4 5 6 8 9 8 7 5 5 5 5 9 11 11 8 8 10 7 3 3 4 4 4 4 4 4 5 7 7
4 5 5 5 4 4 5 5 4 4 4 4 4 5 5 4 5 8 9 9 8 5 5 7 8 9 9 7 8 9 7 4 3 4 5 5 4 4 4 3 4 4 5
5 5 4 4 5 4 4 4 4 5 5 5 5 5 5 4 4 4 4 5 6 5 4 6 8 8 6 6 6 5 4 4 4 5 5 4 3 3 4 3 4 3 3
5 5 4 5 5 4 4 4 5 6 6 6 6 5 5 6 7 8 6 4 4 5 4 2 2 3 3 3 4 4 4 4 4 4 4 4 4 4 4 4 3 3 4
5 5 4 4 4 4 4 4 6 7 8 10 9 8 7 9 9 10 10 10 9 9 5 3 4 5 5 5 5 5 4 5 5 5 5 5 5 5 5 4 4 4 5
6 5 4 4 4 4 4 4 4 4 5 7 9 10 9 9 10 10 10 10 10 9 5 5 6 6 6 5 5 5 5 5 5 5 5 5 5 5 5 4 4 4 5
6 6 5 5 5 5 5 5 4 4 4 4 5 8 9 9 9 9 9 7 5 5 5 6 6 6 6 6 6 6 6 5 5 5 5 5 5 5 5 5 5 5 5
5 4 4 4 4 4 4 4 4 5 5 5 4 5 7 8 9 9 7 4 5 6 6 6 6 6 6 6 6 6 6 6 6 5 5 5 5 5 5 5 5 7 5
5 7 5 4 4 4 4 4 5 5 5 5 5 5 3 3 4 5 4 5 5 6 6 6 6 6 6 6 5 5 6 6 6 5 5 5 5 5 6 6 5 4 4
4 5 6 5 4 4 4 5 5 5 5 5 6 6 7 5 5 6 5 5 6 6 6 6 6 6 6 5 5 6 6 6 5 5 5 5 5 5 5 5 4 4 3
4 4 4 4 4 4 4 5 5 5 6 6 5 6 9 6 5 6 6 6 6 5 5 5 5 5 5 6 6 6 6 6 6 5 5 5 5 5 4 4 3 3 3
3 4 4 4 4 6 5 4 5 5 5 6 5 5 5 5 6 6 6 6 5 5 5 5 6 5 5 6 6 6 6 6 6 6 5 5 4 4 4 4 4 3 3
3 4 4 4 4 4 4 5 5 5 5 5 5 6 6 6 6 6 6 5 5 5 5 5 6 7 7 6 6 7 7 7 7 6 6 5 5 4 3 3 4 4 3
3 4 4 4 4 4 4 5 5 5 5 5 5 5 5 6 6 5 5 5 5 5 6 6 5 6 7 8 7 7 8 9 8 6 5 4 5 5 4 4 3 3 3
4 4 4 4 4 4 4 5 5 6 6 6 6 5 5 5 5 5 5 5 5 5 5 5 6 7 7 7 8 8 8 8 7 6 5 4 4 4 4 3 4 4 3
Wind_Direction
190 196 196 202 199 191 195 207 211 215 209 208 210 212 215 218 214 205 220 225 229 243 242 232 240 230 220 218 210 211 213 208 245 269 260 274 269 277 298 297 292 291 295
195 192 202 203 195 198 210 217 213 217 216 213 210 214 222 222 215 212 224 226 226 234 238 237 245 236 230 226 216 218 219 214 226 261 273 271 265 266 277 287 297 296 294
189 192 201 204 203 213 220 220 216 216 220 219 214 219 227 227 222 220 219 224 224 228 229 230 239 233 242 238 229 228 228 230 222 243 267 264 269 273 285 289 290 296 301
190 195 205 210 211 215 217 216 216 213 215 221 224 225 226 226 225 224 220 222 228 233 231 230 233 230 239 240 239 234 231 232 231 243 261 269 268 272 270 285 299 299 299
196 207 217 216 209 208 212 217 218 218 223 223 225 231 231 227 228 224 222 221 225 238 242 238 238 238 242 244 244 235 228 232 236 246 260 271 272 277 273 265 285 300 292
204 216 219 209 207 212 218 219 221 226 229 225 228 229 233 239 244 239 227 216 219 228 242 248 250 249 254 262 263 257 240 235 237 242 254 259 265 260 259 263 274 296 297
211 218 216 211 215 222 220 217 226 229 228 233 236 231 237 246 251 249 236 214 214 224 233 242 255 255 258 253 268 273 269 262 251 239 243 249 255 248 248 259 252 251 257
217 224 221 213 218 222 219 225 230 226 228 234 238 236 242 253 256 254 247 224 218 228 231 232 238 248 248 251 253 266 268 269 267 252 240 246 244 241 231 239 247 259 260
226 229 225 216 218 221 225 232 229 225 233 237 238 235 241 258 261 259 249 213 227 239 239 235 235 241 257 263 256 260 272 272 271 266 262 264 267 265 251 232 243 264 277
230 232 228 219 218 224 229 232 228 225 233 237 243 240 239 250 261 260 248 212 229 243 245 242 246 251 261 265 251 245 262 270 266 276 274 275 274 271 264 232 222 242 262
233 232 230 223 223 226 228 229 230 230 233 236 245 250 244 249 261 259 248 220 222 236 243 244 244 259 266 267 264 247 258 269 257 256 263 265 265 259 259 246 225 224 238
230 234 237 234 231 227 224 232 228 220 229 242 250 263 257 255 255 256 253 249 238 227 240 241 245 261 267 270 268 263 271 275 253 252 258 260 258 256 252 248 242 238 238
230 235 241 240 237 228 221 225 229 221 225 239 241 254 264 259 259 261 259 258 255 243 242 253 260 266 270 270 268 273 275 258 245 256 262 261 252 249 250 255 252 248 252
234 238 237 236 241 235 226 218 219 224 229 235 239 248 257 259 256 253 249 256 260 259 256 261 266 268 269 269 272 271 256 244 250 256 263 262 254 249 250 248 250 246 253
236 237 235 232 233 237 234 227 225 227 221 224 233 234 243 257 254 248 246 239 233 240 253 253 252 259 256 258 259 254 249 252 257 251 256 260 258 255 255 245 240 242 242
237 238 236 233 232 231 238 261 251 243 250 246 244 242 246 253 266 262 260 261 262 259 259 246 248 247 248 252 257 259 252 248 248 250 254 255 255 255 258 252 242 237 245
234 238 237 233 231 230 229 235 264 281 269 260 257 259 259 265 268 267 267 266 264 260 249 245 247 246 247 247 248 251 254 248 242 242 248 252 251 254 253 251 244 241 245
237 238 235 232 230 229 229 231 234 246 269 276 271 268 268 269 270 268 268 269 261 250 240 245 249 248 246 246 247 249 252 250 243 242 243 246 247 251 251 246 241 239 243
239 238 233 232 231 231 230 232 236 238 249 263 271 274 268 270 271 266 261 242 240 245 243 246 250 250 248 245 246 245 245 246 244 241 242 242 243 246 249 245 241 241 241
245 243 238 232 231 232 230 232 235 238 246 252 256 258 258 259 258 257 243 235 238 244 244 246 247 247 246 245 244 244 245 245 242 243 244 242 242 243 245 240 235 236 238
250 249 243 239 231 230 231 233 235 237 244 251 254 253 253 249 248 248 247 242 239 241 243 245 246 244 243 243 243 243 244 246 242 242 241 239 239 244 241 234 229 229 232
243 243 240 237 237 233 235 231 233 239 245 252 260 261 262 257 251 252 251 250 245 241 240 243 246 245 241 239 239 241 244 244 241 239 238 234 233 234 232 225 219 220 219
239 242 244 244 239 246 248 236 237 242 247 249 254 257 255 249 250 251 251 250 247 245 240 238 245 249 243 239 236 235 241 242 238 235 235 233 228 223 218 216 213 212 217
238 240 242 244 240 236 239 244 243 246 249 251 252 254 254 252 254 253 250 250 249 247 242 238 241 244 245 246 243 239 240 242 238 231 224 223 219 213 209 210 211 207 212
244 243 241 240 242 244 247 247 247 249 252 254 255 257 257 255 254 253 249 246 246 248 247 242 242 243 245 244 245 246 247 248 244 233 214 210 206 203 202 203 204 200 204
245 243 244 242 243 245 248 252 253 252 253 254 253 254 254 255 255 252 249 246 246 247 248 245 241 242 246 249 249 248 249 248 244 231 209 196 197 199 195 198 194 194 193
Height
1503 1504 1505 1506 1506 1506 1506 1506 1507 1507 1507 1507 1507 1507 1507 1507 1507 1506 1506 1505 1505 1504 1503 1503 1502 1501 1501 1500 1499 1498 1498 1497 1495 1493 1493 1492 1490 1489 1487 1485 1484 1481 1480
1501 1502 1502 1502 1502 1503 1503 1503 1503 1504 1504 1504 1504 1504 1503 1503 1503 1502 1502 1502 1501 1500 1499 1499 1498 1497 1496 1496 1495 1494 1493 1492 1491 1489 1487 1487 1485 1484 1482 1481 1479 1477 1475
1498 1498 1499 1499 1499 1499 1499 1499 1500 1500 1500 1500 1500 1499 1499 1499 1499 1498 1498 1497 1497 1496 1495 1494 1494 1493 1492 1491 1490 1489 1488 1488 1486 1484 1482 1482 1480 1479 1477 1476 1474 1473 1471
1494 1495 1495 1495 1495 1495 1495 1495 1496 1496 1496 1496 1496 1495 1495 1495 1494 1494 1493 1493 1492 1492 1491 1490 1489 1488 1487 1486 1485 1485 1484 1483 1481 1479 1478 1476 1475 1474 1472 1470 1469 1468 1466
1490 1491 1491 1491 1491 1491 1491 1491 1491 1492 1492 1492 1491 1491 1491 1490 1490 1489 1489 1488 1487 1487 1486 1485 1485 1484 1483 1482 1481 1480 1479 1477 1476 1474 1473 1471 1470 1469 1467 1466 1464 1462 1460
1486 1486 1487 1487 1487 1487 1487 1487 1487 1487 1487 1487 1487 1486 1486 1485 1485 1484 1484 1483 1482 1482 1481 1480 1480 1479 1478 1477 1476 1475 1474 1472 1471 1469 1468 1466 1465 1464 1463 1461 1459 1457 1455
1482 1482 1482 1482 1482 1482 1482 1482 1482 1482 1483 1482 1482 1481 1481 1481 1480 1480 1479 1478 1477 1477 1476 1475 1474 1474 1473 1472 1471 1470 1468 1467 1466 1465 1463 1461 1460 1459 1458 1456 1454 1453 1451
1477 1478 1478 1478 1478 1478 1478 1478 1478 1478 1477 1477 1477 1477 1476 1476 1475 1475 1474 1473 1472 1472 1471 1470 1469 1468 1468 1467 1465 1464 1463 1462 1461 1459 1458 1456 1455 1454 1453 1451 1450 1448 1446
1473 1473 1473 1473 1473 1473 1473 1473 1473 1473 1472 1472 1472 1471 1471 1471 1470 1470 1469 1468 1467 1466 1466 1465 1464 1463 1462 1461 1460 1458 1457 1456 1456 1454 1452 1451 1450 1448 1447 1446 1444 1443 1440
1469 1469 1469 1469 1469 1468 1468 1468 1468 1467 1467 1467 1467 1466 1466 1466 1466 1465 1464 1462 1462 1461 1461 1460 1459 1458 1457 1456 1454 1453 1451 1450 1450 1448 1447 1445 1444 1443 1442 1441 1439 1438 1436
1465 1464 1464 1464 1464 1464 1463 1463 1463 1462 1462 1462 1462 1461 1461 1461 1460 1460 1459 1457 1456 1455 1455 1454 1453 1453 1451 1450 1449 1448 1446 1445 1443 1442 1441 1439 1438 1437 1436 1435 1435 1434 1432
1459 1459 1459 1459 1459 1458 1458 1458 1458 1457 1457 1456 1456 1456 1456 1456 1455 1454 1453 1452 1451 1450 1449 1448 1448 1447 1446 1445 1443 1442 1441 1439 1438 1436 1435 1433 1432 1431 1431 1430 1429 1428 1427
1454 1454 1454 1454 1454 1453 1453 1453 1453 1452 1452 1451 1451 1450 1450 1450 1449 1449 1448 1447 1446 1445 1444 1443 1442 1441 1440 1439 1438 1436 1435 1434 1432 1431 1429 1428 1427 1426 1425 1424 1423 1422 1421
1449 1449 1449 1448 1448 1448 1448 1448 1447 1447 1446 1446 1445 1445 1444 1444 1444 1443 1442 1441 1440 1439 1438 1437 1436 1435 1434 1433 1432 1431 1429 1428 1427 1425 1424 1423 1422 1421 1420 1419 1418 1417 1416
1444 1444 1443 1443 1443 1442 1442 1442 1442 1442 1441 1441 1440 1440 1439 1438 1438 1438 1436 1435 1435 1434 1432 1431 1430 1429 1428 1427 1426 1425 1424 1423 1421 1420 1419 1417 1416 1415 1414 1414 1413 1412 1411
1438 1438 1437 1437 1437 1437 1436 1436 1436 1436 1435 1435 1435 1434 1433 1433 1432 1431 1431 1430 1429 1428 1427 1425 1424 1423 1422 1421 1420 1419 1418 1417 1415 1414 1413 1412 1411 1410 1409 1408 1408 1407 1406
1433 1432 1432 1431 1431 1431 1431 1430 1430 1430 1430 1429 1429 1428 1428 1427 1426 1425 1425 1424 1423 1422 1421 1419 1418 1417 1416 1415 1414 1413 1412 1411 1410 1409 1408 1407 1406 1405 1404 1403 1402 1402 1400
1427 1426 1426 1425 1425 1425 1425 1424 1424 1423 1423 1422 1423 1423 1422 1421 1420 1419 1419 1418 1417 1416 1414 1413 1412 1411 1410 1409 1408 1407 1406 1405 1404 1403 1402 1401 1400 1400 1399 1398 1397 1397 1396
1421 1421 1420 1420 1419 1419 1419 1419 1418 1418 1417 1416 1416 1416 1416 1415 1414 1414 1413 1412 1411 1410 1409 1408 1406 1405 1404 1403 1402 1401 1400 1399 1398 1398 1397 1396 1395 1394 1394 1393 1392 1392 1391
1416 1415 1414 1414 1413 1413 1413 1413 1412 1412 1411 1410 1410 1410 1409 1409 1407 1407 1406 1406 1405 1404 1403 1402 1400 1400 1399 1397 1396 1395 1394 1393 1392 1392 1391 1390 1390 1389 1388 1388 1388 1387 1387
1410 1409 1409 1408 1408 1408 1407 1407 1406 1406 1405 1404 1404 1404 1403 1402 1402 1401 1400 1399 1399 1398 1397 1396 1394 1394 1393 1392 1390 1389 1388 1387 1387 1386 1386 1385 1385 1384 1383 1383 1383 1383 1383
1405 1404 1403 1403 1402 1402 1402 1401 1401 1400 1399 1399 1398 1398 1397 1397 1396 1395 1394 1393 1393 1392 1391 1390 1388 1388 1387 1386 1385 1384 1383 1382 1381 1381 1380 1380 1379 1379 1379 1379 1379 1379 1378
1400 1399 1398 1398 1397 1397 1396 1396 1395 1395 1394 1393 1392 1392 1391 1391 1390 1389 1388 1387 1386 1385 1385 1384 1382 1381 1381 1380 1379 1378 1377 1377 1376 1376 1375 1375 1375 1375 1375 1375 1375 1375 1375
1395 1394 1393 1392 1392 1391 1391 1390 1390 1389 1388 1388 1387 1386 1386 1385 1384 1384 1383 1382 1381 1380 1379 1378 1377 1376 1375 1374 1374 1373 1372 1372 1371 1371 1371 1371 1370 1370 1370 1371 1371 1371 1371
1390 1389 1388 1387 1387 1386 1386 1385 1384 1384 1383 1382 1382 1381 1380 1380 1379 1378 1377 1376 1375 1374 1373 1373 1372 1371 1370 1369 1369 1368 1367 1367 1367 1366 1366 1366 1366 1366 1367 1367 1367 1368 1368
1385 1384 1383 1383 1382 1381 1381 1380 1379 1378 1378 1377 1376 1376 1375 1374 1373 1373 1372 1371 1370 1369 1368 1368 1367 1366 1365 1365 1364 1363 1363 1363 1362 1362 1362 1362 1363 1363 1363 1364 1364 1365 1365